This is the latest recevied weather packets stored in our database for station/object YU7OR-2. If no packets are shown the sender has not sent any weather packets the latest 1 day(s).
| Time | Temp. | Humidity | Pressure | Rain* | Wind** | Luminosity | Snow |
|---|---|---|---|---|---|---|---|
| 1778049909 | 19.44° C | 50% | 1012 hPa | 0 mm | - | - | - |
| 1778049644 | 19.44° C | 50% | 1012 hPa | 0 mm | - | - | - |
| 1778049394 | 18.89° C | 52% | 1011.9 hPa | 0 mm | - | - | - |
| 1778049114 | 18.33° C | 53% | 1011.7 hPa | 0 mm | - | - | - |
| 1778048819 | 17.78° C | 54% | 1011.3 hPa | 0 mm | - | - | - |
| 1778048569 | 17.78° C | 55% | 1011.4 hPa | 0 mm | - | - | - |
| 1778048309 | 17.22° C | 55% | 1011.2 hPa | 0 mm | - | - | - |
| 1778048019 | 17.22° C | 54% | 1011.3 hPa | 0 mm | - | - | - |
| 1778047744 | 16.67° C | 56% | 1011.3 hPa | 0 mm | - | - | - |
| 1778047494 | 16.11° C | 55% | 1011.3 hPa | 0 mm | - | - | - |
| 1778046934 | 16.11° C | 54% | 1011.2 hPa | 0 mm | - | - | - |
| 1778046639 | 15.56° C | 57% | 1011.2 hPa | 0 mm | - | - | - |
| 1778046399 | 15.56° C | 57% | 1011.2 hPa | 0 mm | - | - | - |
| 1778046134 | 15.56° C | 62% | 1010.7 hPa | 0 mm | - | - | - |
| 1778045849 | 15° C | 63% | 1010.5 hPa | 0 mm | - | - | - |
| 1778045559 | 15° C | 64% | 1010.3 hPa | 0 mm | - | - | - |
| 1778045284 | 15° C | 64% | 1010.3 hPa | 0 mm | - | - | - |
| 1778044994 | 15° C | 66% | 1010.5 hPa | 0 mm | - | - | - |
| 1778044704 | 14.44° C | 66% | 1010.4 hPa | 0 mm | - | - | - |
| 1778044459 | 14.44° C | 66% | 1010.5 hPa | 0 mm | - | - | - |
| 1778044165 | 14.44° C | 66% | 1010.4 hPa | 0 mm | - | - | - |
| 1778043889 | 13.89° C | 69% | 1010.4 hPa | 0 mm | - | - | - |
| 1778043624 | 13.33° C | 68% | 1010.4 hPa | 0 mm | - | - | - |
| 1778043374 | 13.33° C | 68% | 1010.4 hPa | 0 mm | - | - | - |
| 1778043109 | 13.33° C | 68% | 1010.4 hPa | 0 mm | - | - | - |
* Rain latest hour (hover to see other rain measurements)
** Current wind speed in m/s (hover to see current wind gust speed)